Regional Weather Roundup
Issued by NWS Grand Forks, ND

Home | Current Version | Previous Version | Graphics & Text | Print | Product List | Glossary On
Versions: 1 2 3 4 5 6 7 8 9 10 11 12 13 14 15 16 17 18 19 20 21 22 23 24 25 26 27 28 29 30 31 32 33 34 35 36 37 38 39 40 41 42 43 44 45 46 47 48 49 50
000
ASUS43 KFGF 160310
RWRFGF
PRAIRIE TO PINES  WEATHER ROUNDUP
NATIONAL WEATHER SERVICE EASTERN NORTH DAKOTA/GRAND FORKS ND
900 PM CST MON JAN 15 2018

 **SATELLITE DATA USED TO AUGMENT SKY COVER AT AUTOMATED STATIONS**
 *****  WEATHER ACROSS EASTERN NORTH DAKOTA  *****

CITY           SKY/WX    TMP DP  RH WIND       PRES   REMARKS
GRAND FORKS    FAIR     -10 -16  74 N21       30.82F WCI -35
GRAND FRKS AFB FAIR     -10 -19  65 N16       30.83F WCI -33
GRAND FRKS NWS   N/A    -11 N/A N/A N9          N/A  WCI -29
DEVILS LAKE    FAIR     -15 -21  74 NW8       30.81F WCI -32
FARGO          CLOUDY    -9 -15  75 N18       30.81S HAZE    WCI -33
WAHPETON ARPT  CLOUDY    -9 -17  70 N24       30.77R WCI -36
$$

 ***** WEATHER ACROSS CENTRAL AND WESTERN NORTH DAKOTA  *****

CITY           SKY/WX    TMP DP  RH WIND       PRES   REMARKS
BISMARCK       FAIR     -11 -18  71 NW6       30.84S WCI -25
MINOT          FAIR     -13 -19  75 SW8       30.80F WCI -30
JAMESTOWN      FAIR     -11 -16  78 NW14      30.78R WCI -33
MINOT AFB      FAIR     -19 -25  74 W9        30.79F WCI -39
GARRISON         N/A    -14 -21  71 NW17      30.78F WCI -39
WILLISTON      FAIR     -14 -18  82 SW3       30.79F
DICKINSON      FAIR     -16 -21  78 W8        30.71F WCI -34
HETTINGER      FAIR     -12 -18  74 NW10      30.73S WCI -31
$$

 *****  OTHER AIRPORT OBSERVATIONS IN OUR AREA  *****

CITY           SKY/WX    TMP DP  RH WIND       PRES   REMARKS
WALHALLA       FAIR     -15 -22  70 NW7       30.86S WCI -31
GRAFTON AIRPOR FAIR      -9 -17  70 N17       30.87F WCI -33
VALLEY CITY AR FAIR     -11 -18  70 NW17      30.78S WCI -35
CANDO          FAIR     -18 -26  69 CALM      30.83S
CAVALIER APRT    N/A    -11 -18  70 NW10      30.85F WCI -30
GWINNER          N/A     -9 -15  77 N13       30.77R WCI -30
SHEYENNE NWR     N/A     -8 -15  69 N8        29.95S WCI -24
ROLLA          FAIR     -13 -22  64 NW7       30.75F WCI -29
 ***** THE ABOVE OBSERVATIONS ARE NON NWS ARE NOT QUALITY
       CONTROLLED AND MAY MIS-REPORT RAIN FOR SNOW...
$$

  *****  WEATHER ACROSS NORTHERN MINNESOTA  *****

CITY           SKY/WX    TMP DP  RH WIND       PRES   REMARKS
FLAG ISLAND    FAIR      -9 -15  77 N12       30.74R WCI -29
WARROAD        FAIR     -11 -17  77 NW5       30.75S WCI -23
ROSEAU         FAIR     -11 -17  77 NW5       30.77S WCI -23
HALLOCK        FAIR     -13 -18  77 N9        30.84F WCI -31
THF RVR FALLS  FAIR     -14 -19  79 N12       30.77S WCI -35
BAUDETTE       MOCLDY    -7 -12  79 NW8       30.69F WCI -23
WASKISH        CLOUDY    -2  -8  78 N3        30.68F
CROOKSTON      CLOUDY   -11 -17  77 N16       30.82S HAZE    WCI -34
STEPHEN NDAWN    N/A    -13 -18  77 N12         N/A  WCI -33
GREENBUSH NDAW   N/A    -15 -20  76 N5          N/A  WCI -27
$$
  *****  WEATHER ACROSS CENTRAL AND WEST MINNESOTA  *****

CITY           SKY/WX    TMP DP  RH WIND       PRES   REMARKS
FOSSTON        CLOUDY   -11 -18  70 N14       30.72S WCI -33
BEMIDJI        CLOUDY    -3  -7  82 N15       30.66S WCI -23
PARK RAPIDS    CLOUDY    -4 -10  75 N10       30.62S WCI -21
ELBOW LAKE     MOCLDY   -13 -18  78 NW13      30.71R HAZE    WCI -35
WADENA         CLOUDY    -8 -11  84 N12       30.63R WCI -27
DETROIT LAKES  CLOUDY   -11 -17  77 NW12      30.70R HAZE    WCI -31
MOORHEAD       CLOUDY   -11 -17  77 N20       30.79S WCI -36
FERGUS FALLS   CLOUDY   -13 -18  77 N12G17    30.77R WCI -33
MORRIS MN      CLOUDY   -11 -17  77 NW18G29   30.69R HAZE    WCI -36
STAPLES        CLOUDY    -8 -11  84 NW6       30.62R WCI -21
$$
  *****  WEATHER ELSEWHERE ACROSS MINNESOTA  *****

CITY           SKY/WX    TMP DP  RH WIND       PRES   REMARKS
DULUTH         CLOUDY     2  -1  88 N17       30.48R WCI -18
INTRNTL FALLS  CLOUDY     1  -6  72 N9        30.66F WCI -14
ELY            CLOUDY     3   0  85 N6        30.56R WCI  -8
CLOQUET        FAIR       3  -2  78 NW18G25   30.52R WCI -17
WHEATON        CLOUDY    -9 -17  70 NW15G22   30.77S WCI -31
BRAINERD       CLOUDY    -1  -7  75 N14       30.60R WCI -20
HIBBING        CLOUDY     1  -3  83 N13       30.57R WCI -17
ALEXANDRIA     FAIR     -12 -17  78 N14       30.62S WCI -34
SAINT CLOUD    FLURRIES  -1  -8  72 N13       30.58R WCI -19
MINNEAPOLIS    FLURRIES   2  -4  76 NW12G22   30.55R WCI -15
$$

  *****  WEATHER ACROSS SOUTH DAKOTA  *****

CITY           SKY/WX    TMP DP  RH WIND       PRES   REMARKS
SIOUX FALLS    FLURRIES  -5 -11  75 N20G29    30.65R WCI -28
BROOKINGS      MOCLDY    -8 -14  74 N16       30.64  WCI -30
WATERTOWN      CLOUDY    -7 -12  79 N22       30.64R WCI -32
HURON          CLOUDY    -4 -11  72 N20G31    30.76S WCI -27
SISSETON         N/A     -6 -12  75 N22G32    30.75R WCI -31
ABERDEEN       CLOUDY    -6 -13  71 N15       30.80R WCI -27
MITCHELL       CLOUDY    -2 -10  69 N26G33    30.76R WCI -27
PIERRE         FAIR      -5 -13  68 N13       30.79S WCI -24
MOBRIDGE       FAIR      -8 -16  67 NW13      30.77S WCI -28
RAPID CITY     FAIR      -5 -12  72 N17       30.68S WCI -27
$$

  *****  SOME WEATHER IN NEARBY STATES *****

CITY           SKY/WX    TMP DP  RH WIND       PRES   REMARKS
GLASGOW MT     FAIR     N/A N/A N/A E15       30.67F
GREAT FALLS MT FAIR       7   4  87 SE7       30.35F WCI  -5
CHEYENNE WY    FAIR       4  -4  69 NW3       30.43S
SCOTTSBLUFF NE FAIR       1  -5  75 NW6       30.62R WCI -10
OMAHA NE       FAIR      -1 -10  65 NW16      30.70R WCI -21
DES MOINES IA  FLURRIES  -2 -10  69 NW12G23   30.59R WCI -20
DAVENPORT IA   FAIR     N/A N/A N/A W20       30.46R
CHICAGO IL     LGT SNOW  11   7  84 SW12      30.29R FOG     WCI  -3
EAU CLAIRE WI  MOCLDY     7   2  80 NW7       30.42R WCI  -5
LA CROSSE WI   LGT SNOW   7   2  80 NW14      30.43S WCI -10
$$

  *****  SOME NATIONAL WEATHER *****

CITY           SKY/WX    TMP DP  RH WIND       PRES   REMARKS
LA GUARDIA NY  FAIR      26  17  68 E10       30.52S WCI  16
RALEIGH NC     FAIR      25  15  66 CALM      30.46F
ATLANTA GA     FAIR      39  25  57 SE5       30.40S
NEW ORLEANS LA FAIR      47  43  86 CALM      30.38S
OKLAHOMA CITY  MOCLDY    17   3  54 N21G31    30.68R WCI   0
ALBUQUERQUE NM MOCLDY    32  22  66 E24G33    30.28R WCI  19
SALT LAKE CITY MOCLDY    36  31  82 CALM      30.30S
LOS ANGELES CA MOCLDY    60  56  86 VRB3      30.07S
BOISE ID       FAIR      41  33  73 SE7       30.23F
SEATTLE WA     CLOUDY    58  36  43 SE22G29   29.87R
$$

*** WEATHER ACROSS MANITOBA...SASKATCHEWAN AND ONTARIO ***
                ***ONTARIO***

CITY           SKY/WX    TMP DP  RH WIND       PRES   REMARKS
GERALDTON      FLURRIES   5   3  92 NE7       30.56S WCI  -7
THUNDER BAY    FLURRIES  12   7  79 N6        30.57R WCI   3
SIOUX LOOKOUT  FLURRIES  -4  -9  77 N6        30.66S WCI -16
TORONTO        LGT SNOW  18  14  86 NE7       30.33S WCI   8
BIG TROUT LK   CLEAR    -15 -18  84 W10       30.62F WCI -35
PICKLE LAKE    NOT AVBL
DRYDEN         CLOUDY    -4  -8  84 N6        30.66R WCI -16
KENORA         CLEAR     -9 -15  77 N9        30.70S WCI -27
$$
                *** MANITOBA***

CITY           SKY/WX    TMP DP  RH WIND       PRES   REMARKS
BRANDON        CLEAR    -17 -24  70 W10       30.81F WCI -37
DAUPHIN        CLEAR     -9 -18  64 SW8       30.80F WCI -26
ISLAND LAKE    PTCLDY   -11 -18  70 W8        30.69F WCI -28
PILOT MOUND      N/A    -17 -24  70 W3          N/A
THE PAS        CLOUDY    -6 -17  59 S6        30.66F WCI -18
THOMPSON       CRYSTALS  -6 -13  71 SW7       30.53F WCI -20
WINNIPEG       PTCLDY   -17 -22  76 W5        30.87S WCI -29
LYNN LAKE      CLOUDY     0  -6  78 SW14G21   30.32F WCI -19
CHURCHILL      CLOUDY     0  -8  71 SW22      30.22F WCI -23
GILLAM         CLOUDY    -8 -15  71 SW14G21   30.51  WCI -28
$$
                ***SASKATCHEWAN***

CITY           SKY/WX    TMP DP  RH WIND       PRES   REMARKS
ESTEVAN        PTCLDY   -17 -24  70 SW7       30.75F WCI -33
KINDERSLEY     CLEAR      1  -8  66 S9        30.42F WCI -14
LLOYDMINSTER   PTCLDY     0  -8  71 SE10      30.36F WCI -17
PRINCE ALBERT  PTCLDY   -15 -18  84 SW5       30.59F WCI -27
REGINA         CLEAR     -9 -15  77 S12       30.67F WCI -29
YORKTON        CLEAR     -9 -15  77 S8        30.71F WCI -26
N. BATTLEFORD  CLEAR     -6 -15  65 E14       30.49F WCI -26
LA RONGE       PTCLDY    -2  -9  71 N6        30.51F WCI -14
SASKATOON      CLEAR     -2  -9  71 S12G18    30.56F WCI -20
SWIFT CURRENT  CLEAR     -2 -11  65 S28G33    30.46F WCI -28
$$
NOTE: THESE ARE AUTOMATED STATIONS WITH LIMITED QUALITY CONTROL
      "FAIR" INDICATES FEW OR NO CLOUDS BELOW 12,000 FEET WITH NO
      SIGNIFICANT WEATHER AND/OR OBSTRUCTIONS TO VISIBILITY.
      SKY/WX - SKY CONDITION AND SIGNIFICANT WEATHER.
      TMP - AIR TEMPERATURE.    DP   - DEWPOINT TEMPERATURE.
      RH  - RELATIVE HUMIDITY.  PRES - PRESSURE.
      HX  - HEAT INDEX.         WCI  - WIND CHILL INDEX.
$




USA.gov is the U.S. government's official web portal to all federal, state and local government web resources and services.